Weather History for KOOA - October, 2012

Change the Weather History Date:

Monday, October 29, 2012

  Actual Average (KOTM) Record (KOTM)
Temperature  
Mean Temperature 40 °F 48 °F  
Max Temperature 51 °F 58 °F 91 °F (1937)
Min Temperature 28 °F 37 °F 15 °F (1925)
Degree Days  
Heating Degree Days 26 17  
Month to date heating degree days 366  
Since 1 July heating degree days 487  
Cooling Degree Days 0 0  
Month to date cooling degree days 9  
Year to date cooling degree days 936  
Moisture  
Dew Point 27 °F    
Average Humidity 64    
Maximum Humidity 83    
Minimum Humidity 39    
Precipitation  
Precipitation 0.00 in 0.09 in 2.28 in (1896)
Month to date precipitation 2.65  
Year to date precipitation 33.14  
Sea Level Pressure  
Sea Level Pressure 30.29 in    
Wind  
Wind Speed 4 mph (ESE)    
Max Wind Speed 9 mph    
Max Gust Speed -    
Visibility 6 miles    
Events Fog    
T = Trace of Precipitation, MM = Missing Value Source: NWS Daily Summary

Daily Weather History Graph

Daily Weather History Graph

Search for Another Location

Airport or City:

Trip Planner

Search our weather history database for the weather conditions in past years. The results will help you decide how hot, cold, wet, or windy it might be!

Date:

Astronomy

Oct. 29, 2012 Rise Set
Actual Time 7:38 AM CDT 6:08 PM CDT
Civil Twilight 7:09 AM CDT 6:36 PM CDT
Nautical Twilight 6:37 AM CDT 7:09 PM CDT
Astronomical Twilight 6:05 AM CDT 7:41 PM CDT
Moon 6:00 PM CDT (10/29) 7:29 AM CDT (10/29)
Length of Visible Light 11h 27m
Length of Day
10h 30m
Full, 100% of the Moon is Illuminated
Oct 29
Full
Oct 29
Full
Nov 6
Last Quarter
Nov 13
New
Nov 20
First Quarter

Hourly Weather History & Observations

Time (CDT) Temp. Windchill Dew Point Humidity Pressure Visibility Wind Dir Wind Speed Gust Speed Precip Events Conditions
12:15 AM 34.0 °F 28.8 °F 24.8 °F 69% 30.31 in 0.5 mi East 5.8 mph - N/A   Haze
12:35 AM 33.1 °F 28.7 °F 24.4 °F 71% 30.31 in 0.5 mi ENE 4.6 mph - N/A   Haze
12:55 AM 33.3 °F 28.9 °F 24.6 °F 71% 30.32 in 1.5 mi ENE 4.6 mph - N/A   Haze
1:15 AM 32.9 °F 28.5 °F 24.3 °F 71% 30.32 in 1.0 mi ENE 4.6 mph - N/A   Haze
1:35 AM 32.9 °F 29.8 °F 24.3 °F 71% 30.32 in 1.0 mi ENE 3.5 mph - N/A   Haze
1:55 AM 31.1 °F - 23.9 °F 75% 30.32 in 10.0 mi Calm Calm - N/A   Clear
2:15 AM 32.0 °F - 24.6 °F 74% 30.32 in 10.0 mi Calm Calm - N/A   Clear
2:35 AM 31.6 °F 28.3 °F 24.1 °F 74% 30.32 in 10.0 mi NE 3.5 mph - N/A   Clear
2:55 AM 31.6 °F - 24.1 °F 74% 30.32 in 10.0 mi Calm Calm - N/A   Clear
3:15 AM 31.1 °F 26.4 °F 23.9 °F 75% 30.32 in 7.0 mi ENE 4.6 mph - N/A   Clear
3:35 AM 30.9 °F 26.2 °F 23.9 °F 75% 30.32 in 0.5 mi East 4.6 mph - N/A   Haze
3:55 AM 30.9 °F - 24.3 °F 76% 30.32 in 0.5 mi Calm Calm - N/A   Haze
4:15 AM 30.6 °F - 24.1 °F 77% 30.32 in 10.0 mi Calm Calm - N/A   Clear
4:55 AM 29.8 °F 24.9 °F 23.5 °F 77% 30.32 in 0.2 mi East 4.6 mph - N/A   Haze
5:15 AM 28.4 °F 23.3 °F 23.2 °F 81% 30.32 in 0.2 mi East 4.6 mph - N/A   Haze
5:55 AM 28.8 °F 23.7 °F 23.2 °F 80% 30.32 in 0.2 mi East 4.6 mph - N/A   Haze
6:15 AM 28.4 °F 23.3 °F 23.2 °F 81% 30.32 in 0.2 mi ESE 4.6 mph - N/A   Haze
6:35 AM 28.9 °F 22.8 °F 23.4 °F 80% 30.32 in 0.2 mi East 5.8 mph - N/A   Haze
6:55 AM 28.2 °F 23.1 °F 23.4 °F 82% 30.32 in 0.2 mi East 4.6 mph - N/A   Haze
7:15 AM 28.0 °F 21.7 °F 23.0 °F 81% 30.33 in 0.2 mi East 5.8 mph - N/A   Haze
7:35 AM 28.4 °F 22.2 °F 23.7 °F 83% 30.33 in 0.2 mi ESE 5.8 mph - N/A Fog Light Freezing Fog
7:55 AM 28.4 °F 23.3 °F 23.5 °F 82% 30.33 in 0.2 mi ESE 4.6 mph - N/A   Haze
8:15 AM 32.2 °F 27.7 °F 27.3 °F 82% 30.34 in 0.2 mi East 4.6 mph - N/A   Haze
8:35 AM 35.1 °F - 28.9 °F 78% 30.35 in 0.2 mi Calm Calm - N/A   Haze
8:55 AM 36.5 °F - 30.9 °F 80% 30.34 in 0.2 mi Calm Calm - N/A   Haze
9:15 AM 37.4 °F 32.8 °F 30.9 °F 77% 30.33 in 10.0 mi ESE 5.8 mph - N/A   Clear
9:35 AM 38.5 °F 35.0 °F 32.0 °F 78% 30.34 in 10.0 mi SE 4.6 mph - N/A   Clear
9:55 AM 39.6 °F 35.4 °F 32.0 °F 74% 30.35 in 10.0 mi SE 5.8 mph - N/A   Mostly Cloudy
10:15 AM 40.3 °F 37.1 °F 32.2 °F 73% 30.35 in 10.0 mi SE 4.6 mph - N/A   Mostly Cloudy
10:35 AM 41.0 °F 38.0 °F 32.2 °F 71% 30.35 in 10.0 mi SE 4.6 mph - N/A   Mostly Cloudy
10:55 AM 42.3 °F 38.6 °F 32.0 °F 67% 30.34 in 10.0 mi SE 5.8 mph - N/A   Mostly Cloudy
11:15 AM 44.4 °F 39.5 °F 30.9 °F 59% 30.34 in 10.0 mi SE 9.2 mph - N/A   Mostly Cloudy
11:35 AM 43.9 °F 39.3 °F 30.4 °F 59% 30.34 in 10.0 mi SE 8.1 mph - N/A   Overcast
11:55 AM 44.6 °F 40.7 °F 31.1 °F 59% 30.34 in 10.0 mi SE 6.9 mph - N/A   Overcast
12:15 PM 45.1 °F 42.8 °F 30.7 °F 57% 30.34 in 10.0 mi SE 4.6 mph - N/A   Overcast
12:55 PM 46.8 °F - 30.2 °F 53% 30.32 in 10.0 mi SE 5.8 mph - N/A   Mostly Cloudy
1:15 PM 46.9 °F - 29.5 °F 51% 30.31 in 10.0 mi South 3.5 mph - N/A   Mostly Cloudy
1:35 PM 47.3 °F - 29.3 °F 50% 30.30 in 10.0 mi SSE 4.6 mph - N/A   Overcast
1:55 PM 49.5 °F - 28.6 °F 45% 30.30 in 10.0 mi ESE 3.5 mph - N/A   Scattered Clouds
2:15 PM 49.6 °F - 27.7 °F 43% 30.29 in 10.0 mi Calm Calm - N/A   Scattered Clouds
2:35 PM 48.9 °F - 28.0 °F 44% 30.28 in 10.0 mi ESE 5.8 mph - N/A   Scattered Clouds
3:15 PM 50.4 °F - 27.7 °F 42% 30.25 in 7.0 mi ESE 5.8 mph - N/A   Clear
3:35 PM 50.7 °F - 27.7 °F 41% 30.25 in 10.0 mi East 4.6 mph - N/A   Scattered Clouds
3:55 PM 50.9 °F - 26.4 °F 39% 30.24 in 10.0 mi East 4.6 mph - N/A   Mostly Cloudy
4:15 PM 51.1 °F - 27.0 °F 39% 30.24 in 10.0 mi Calm Calm - N/A   Mostly Cloudy
4:35 PM 50.4 °F - 27.5 °F 41% 30.23 in 10.0 mi SE 4.6 mph - N/A   Scattered Clouds
4:55 PM 50.4 °F - 26.6 °F 40% 30.23 in 10.0 mi ESE 6.9 mph - N/A   Clear
5:15 PM 49.5 °F - 25.9 °F 40% 30.22 in 10.0 mi ESE 5.8 mph - N/A   Clear
5:35 PM 47.5 °F - 26.2 °F 44% 30.21 in 10.0 mi ESE 5.8 mph - N/A   Clear
5:55 PM 46.4 °F 45.2 °F 26.2 °F 45% 30.21 in 10.0 mi SE 3.5 mph - N/A   Clear
6:15 PM 44.6 °F 43.1 °F 27.3 °F 51% 30.21 in 10.0 mi ESE 3.5 mph - N/A   Clear
6:35 PM 42.6 °F - 27.5 °F 55% 30.22 in 10.0 mi Calm Calm - N/A   Clear
6:55 PM 43.2 °F - 27.3 °F 54% 30.22 in 10.0 mi Calm Calm - N/A   Mostly Cloudy
7:15 PM 43.3 °F - 27.3 °F 53% 30.22 in 7.0 mi Calm Calm - N/A   Overcast
7:35 PM 42.6 °F 40.9 °F 29.1 °F 59% 30.22 in 7.0 mi East 3.5 mph - N/A   Overcast
7:55 PM 43.7 °F - 29.5 °F 57% 30.22 in 10.0 mi Calm Calm - N/A   Overcast
10:35 PM 39.0 °F 34.8 °F 28.4 °F 66% 30.20 in 10.0 mi North 5.8 mph - N/A   Scattered Clouds
10:55 PM 37.0 °F 32.4 °F 27.9 °F 69% 30.20 in 2.0 mi North 5.8 mph - N/A   Haze
11:15 PM 36.9 °F 33.1 °F 27.9 °F 70% 30.19 in 2.0 mi North 4.6 mph - N/A   Haze
11:35 PM 36.5 °F 32.7 °F 27.5 °F 70% 30.19 in 7.0 mi North 4.6 mph - N/A   Clear
11:55 PM 36.5 °F 32.7 °F 27.5 °F 70% 30.19 in 2.5 mi NNE 4.6 mph - N/A   Haze